Terminal Aerodrome Forecast
Issued by NWS

Home | Current Version | Previous Version | Text Only | Print | Product List | Glossary On
Versions: 1 2 3 4 5 6 7 8 9 10 11 12 13 14 15 16 17 18 19
000
FTUS44 KTSA 170800 AAB
TAFXNA
TAF AMD
KXNA 170821Z 1708/1806 00000KT 1/4SM FG VV002
     FM171400 21005KT 4SM BR OVC015
     FM171500 20007KT P6SM BKN250 PROB30 1800/1806 1SM TSRA
      BKN020CB=

USA.gov is the U.S. government's official web portal to all federal, state and local government web resources and services.